W7KKE-3 Weather Reports


Display with metric or nautical units.
time (UTC)temp
F
wind
direction
speed
MPH
gust
MPH
rain 1hr
in
rain 24hr
in
rain mn
in
humidity
%
barometer
mb
20260504034646 55 190 9.0 16.0 0.00 0.00 0.00 84 1006.9
20260504034148 55 194 7.0 12.0 0.00 0.00 0.00 83 1006.9
20260504033646 56 184 5.0 12.0 0.00 0.00 0.00 83 1006.9
20260504033145 56 140 5.0 14.0 0.00 0.00 0.00 83 1006.9
20260504032647 56 154 3.0 14.0 0.00 0.00 0.00 82 1006.7
20260504032146 56 191 5.0 14.0 0.00 0.00 0.00 82 1006.7
20260504031646 56 254 5.0 11.0 0.00 0.00 0.00 82 1006.6
20260504031145 56 208 6.0 9.0 0.00 0.00 0.00 82 1006.6
20260504030646 56 238 3.0 9.0 0.00 0.00 0.00 81 1006.5
20260504030147 56 242 4.0 9.0 0.00 0.00 0.00 81 1006.4
20260504025647 56 228 3.0 8.0 0.00 0.00 0.00 81 1006.4
20260504025146 56 169 4.0 7.0 0.00 0.00 0.00 81 1006.3
20260504024646 57 177 4.0 11.0 0.00 0.00 0.00 81 1006.2
20260504024148 57 225 5.0 11.0 0.00 0.00 0.00 81 1006.2
20260504023646 57 190 5.0 11.0 0.00 0.00 0.00 81 1006.1
20260504023146 57 191 6.0 8.0 0.00 0.00 0.00 81 1006.1
20260504022645 57 156 5.0 8.0 0.00 0.00 0.00 80 1006.1
20260504022144 57 221 4.0 8.0 0.00 0.00 0.00 81 1006.0
20260504021645 57 208 3.0 8.0 0.00 0.00 0.00 81 1006.0
20260504021145 57 253 3.0 12.0 0.00 0.00 0.00 81 1006.0
20260504020645 57 179 2.0 12.0 0.00 0.00 0.00 81 1005.9
20260504020146 57 204 2.0 12.0 0.00 0.00 0.00 80 1005.9
20260504015645 57 191 6.0 10.0 0.00 0.00 0.00 80 1005.9
20260504014645 57 231 4.0 10.0 0.00 0.00 0.00 79 1005.8
20260504014145 58 189 2.0 10.0 0.00 0.00 0.00 79 1005.7
20260504013644 58 183 4.0 10.0 0.00 0.00 0.00 79 1005.8
20260504013145 58 172 5.0 10.0 0.00 0.00 0.00 78 1005.7
20260504012645 59 187 2.0 10.0 0.00 0.00 0.00 78 1005.7
20260504012145 59 194 4.0 8.0 0.00 0.00 0.00 77 1005.7
20260504011645 60 253 3.0 8.0 0.00 0.00 0.00 77 1005.7
20260504011145 60 232 4.0 11.0 0.00 0.00 0.00 77 1005.7
20260504010645 61 189 2.0 11.0 0.00 0.00 0.00 77 1005.6
20260504010146 61 207 5.0 11.0 0.00 0.00 0.00 76 1005.6
20260504005647 61 243 6.0 9.0 0.00 0.00 0.00 76 1005.6
20260504005144 62 215 4.0 9.0 0.00 0.00 0.00 76 1005.6
20260504004645 62 309 3.0 6.0 0.00 0.00 0.00 76 1005.6
20260504004148 62 253 1.0 4.0 0.00 0.00 0.00 76 1005.6
20260504003144 62 236 4.0 9.0 0.00 0.00 0.00 76 1005.5
20260504002645 62 235 2.0 9.0 0.00 0.00 0.00 75 1005.4
20260504002144 63 201 3.0 9.0 0.00 0.00 0.00 75 1005.4
20260504001644 63 169 2.0 9.0 0.00 0.00 0.00 74 1005.3
20260504001149 64 257 3.0 7.0 0.00 0.00 0.00 74 1005.3
20260504000644 64 246 2.0 7.0 0.00 0.00 0.00 74 1005.2
20260504000146 64 254 4.0 6.0 0.00 0.00 0.00 74 1005.2
20260503235645 64 268 2.0 4.0 0.00 0.00 0.00 74 1005.2
20260503235144 64 263 2.0 6.0 0.00 0.00 0.00 74 1005.1
20260503234645 65 239 2.0 6.0 0.00 0.00 0.00 73 1005.1
20260503234145 65 229 4.0 6.0 0.00 0.00 0.00 73 1005.1
20260503233644 65 271 3.0 6.0 0.00 0.00 0.00 73 1005.0
20260503233144 65 268 2.0 6.0 0.00 0.00 0.00 72 1005.0
20260503232144 66 231 2.0 5.0 0.00 0.00 0.00 70 1005.0
20260503231644 67 270 1.0 5.0 0.00 0.00 0.00 71 1005.0
20260503230644 67 239 3.0 4.0 0.00 0.00 0.00 70 1005.0
20260503230146 67 253 3.0 5.0 0.00 0.00 0.00 70 1005.1
20260503225645 67 246 3.0 5.0 0.00 0.00 0.00 69 1005.3
20260503224645 68 240 3.0 4.0 0.00 0.00 0.00 69 1005.4
20260503224145 68 243 3.0 4.0 0.00 0.00 0.00 70 1005.5
20260503223646 68 224 2.0 4.0 0.00 0.00 0.00 69 1005.5
20260503223144 68 282 2.0 5.0 0.00 0.00 0.00 68 1005.6
20260503222647 68 273 3.0 5.0 0.00 0.00 0.00 68 1005.7
20260503222144 68 249 2.0 5.0 0.00 0.00 0.00 67 1005.6
20260503221644 68 231 2.0 4.0 0.00 0.00 0.00 69 1005.7
20260503221148 68 218 2.0 4.0 0.00 0.00 0.00 69 1005.8
20260503220645 68 254 3.0 4.0 0.00 0.00 0.00 70 1005.9
20260503220147 68 247 2.0 4.0 0.00 0.00 0.00 69 1005.9
20260503215145 68 224 3.0 6.0 0.00 0.00 0.00 69 1006.0
20260503214145 68 256 3.0 6.0 0.00 0.00 0.00 69 1006.1
20260503213645 68 247 3.0 5.0 0.00 0.00 0.00 68 1006.2
20260503213144 69 233 3.0 4.0 0.00 0.00 0.00 68 1006.1
20260503212646 69 238 1.0 5.0 0.00 0.00 0.00 68 1006.2
20260503212145 69 246 2.0 5.0 0.00 0.00 0.00 69 1006.2
20260503211644 69 253 2.0 5.0 0.00 0.00 0.00 69 1006.2
20260503211148 69 242 4.0 4.0 0.00 0.00 0.00 70 1006.2
20260503210644 69 247 2.0 4.0 0.00 0.00 0.00 71 1006.1
20260503210147 68 278 2.0 4.0 0.00 0.00 0.00 72 1006.2
20260503205645 68 280 3.0 4.0 0.00 0.00 0.00 72 1006.2
20260503205144 68 267 1.0 4.0 0.00 0.00 0.00 70 1006.2
20260503204645 68 294 2.0 4.0 0.00 0.00 0.00 70 1006.2
20260503204145 68 280 3.0 3.0 0.00 0.00 0.00 71 1006.3
20260503203644 69 292 1.0 7.0 0.00 0.00 0.00 71 1006.3
20260503203144 69 298 3.0 7.0 0.00 0.00 0.00 69 1006.3
20260503202645 69 285 4.0 7.0 0.00 0.00 0.00 69 1006.3
20260503202145 70 301 3.0 7.0 0.00 0.00 0.00 70 1006.4
20260503201645 70 294 5.0 7.0 0.00 0.00 0.00 70 1006.3
20260503201147 70 301 5.0 7.0 0.00 0.00 0.00 69 1006.4
20260503200737 71 287 3.0 7.0 0.00 0.00 0.00 69 1006.4
20260503200646 71 287 3.0 7.0 0.00 0.00 0.00 69 1006.4
20260503195144 72 299 4.0 5.0 0.00 0.00 0.00 66 1006.5
20260503194644 72 289 3.0 5.0 0.00 0.00 0.00 67 1006.5
20260503194218 72 239 2.0 5.0 0.00 0.00 0.00 69 1006.4
20260503194145 72 239 2.0 5.0 0.00 0.00 0.00 69 1006.4
20260503193645 72 308 0.0 5.0 0.00 0.00 0.00 68 1006.5
20260503191645 71 270 2.0 4.0 0.00 0.00 0.00 68 1006.6
20260503190644 72 243 2.0 4.0 0.00 0.00 0.00 67 1006.6
20260503185648 70 278 0.0 2.0 0.00 0.00 0.00 71 1006.7
20260503185147 70 224 0.0 3.0 0.00 0.00 0.00 71 1006.7
20260503184645 69 260 0.0 3.0 0.00 0.00 0.00 73 1006.7
20260503184145 68 281 0.0 3.0 0.00 0.00 0.00 71 1006.8
20260503183645 68 322 1.0 3.0 0.00 0.00 0.00 73 1006.7
20260503183145 68 292 1.0 3.0 0.00 0.00 0.00 71 1006.7
20260503182645 68 285 0.0 3.0 0.00 0.00 0.00 74 1006.8
20260503182144 67 319 1.0 3.0 0.00 0.00 0.00 74 1006.8
20260503181644 67 296 1.0 2.0 0.00 0.00 0.00 74 1006.8
20260503181145 68 277 1.0 2.0 0.00 0.00 0.00 72 1006.8
20260503180644 68 291 0.0 2.0 0.00 0.00 0.00 73 1006.7
20260503180148 68 302 0.0 2.0 0.00 0.00 0.00 74 1006.7
20260503175645 68 287 0.0 2.0 0.00 0.00 0.00 73 1006.7
20260503175144 67 309 0.0 2.0 0.00 0.00 0.00 75 1006.7
20260503174644 66 0 0.0 0.0 0.00 0.00 0.00 76 1006.7
20260503174145 65 0 0.0 0.0 0.00 0.00 0.00 77 1006.7
20260503173645 65 284 0.0 0.0 0.00 0.00 0.00 78 1006.7
20260503173145 64 303 0.0 3.0 0.00 0.00 0.00 78 1006.8
20260503172646 64 288 1.0 3.0 0.00 0.00 0.00 77 1006.8
20260503172145 64 303 1.0 3.0 0.00 0.00 0.00 78 1006.8
20260503171645 63 296 0.0 3.0 0.00 0.00 0.00 77 1006.8
20260503170738 62 289 0.0 2.0 0.00 0.00 0.00 80 1006.8
20260503170645 62 289 0.0 2.0 0.00 0.00 0.00 80 1006.8
20260503170147 62 316 1.0 3.0 0.00 0.00 0.00 81 1006.7
20260503150644 54 298 2.0 4.0 0.00 0.00 0.00 88 1006.5
20260503150148 54 102 3.0 3.0 0.00 0.00 0.00 89 1006.5
20260503140147 50 0 0.0 2.0 0.00 0.00 0.00 88 1006.7
20260503131145 51 112 5.0 8.0 0.00 0.00 0.00 88 1006.2
20260503130644 51 107 7.0 8.0 0.00 0.00 0.00 88 1006.1
20260503130146 50 103 5.0 8.0 0.00 0.00 0.00 88 1006.2
20260503120146 49 113 0.0 2.0 0.00 0.00 0.00 87 1006.7
20260503110645 49 58 0.0 4.0 0.00 0.00 0.00 87 1006.8
20260503110146 49 96 0.0 4.0 0.00 0.00 0.00 87 1006.8
20260503081147 51 0 0.0 2.0 0.00 0.00 0.00 86 1008.2
20260503080644 51 340 0.0 2.0 0.00 0.00 0.00 85 1008.3
20260503072144 52 103 2.0 4.0 0.00 0.00 0.00 85 1008.6
20260503071645 52 95 1.0 4.0 0.00 0.00 0.00 85 1008.5
20260503071145 52 102 4.0 4.0 0.00 0.00 0.00 85 1008.6
20260503070148 52 0 1.0 2.0 0.00 0.00 0.00 85 1008.6
20260503054644 54 102 0.0 2.0 0.00 0.00 0.00 84 1008.9
20260503054145 54 0 1.0 2.0 0.00 0.00 0.00 84 1008.8
20260503053645 54 100 0.0 2.0 0.00 0.00 0.00 84 1008.9
20260503053144 54 107 0.0 2.0 0.00 0.00 0.00 84 1008.9
20260503052646 54 116 0.0 3.0 0.00 0.00 0.00 84 1008.8
20260503052144 54 77 0.0 3.0 0.00 0.00 0.00 84 1008.8
20260503051644 54 109 1.0 3.0 0.00 0.00 0.00 84 1008.9
20260503051145 54 0 0.0 1.0 0.00 0.00 0.00 84 1008.9
20260503050644 54 8 0.0 1.0 0.00 0.00 0.00 84 1008.8
20260503045644 54 320 0.0 5.0 0.00 0.00 0.00 84 1008.8
20260503045145 54 334 2.0 5.0 0.00 0.00 0.00 84 1008.8
20260503044644 54 347 0.0 5.0 0.00 0.00 0.00 84 1008.8
20260503044145 55 329 1.0 6.0 0.00 0.00 0.00 84 1008.9
20260503043644 55 0 0.0 6.0 0.00 0.00 0.00 84 1009.0
20260503043144 54 327 0.0 6.0 0.00 0.00 0.00 84 1008.9
20260503042646 55 315 1.0 6.0 0.00 0.00 0.00 84 1008.9
20260503042144 55 340 4.0 9.0 0.00 0.00 0.00 84 1008.9
20260503041645 55 319 3.0 9.0 0.00 0.00 0.00 84 1008.9
20260503040644 55 306 7.0 12.0 0.00 0.00 0.00 84 1008.8
20260503035646 55 303 8.0 12.0 0.00 0.00 0.00 84 1008.8
20260503035144 55 334 7.0 13.0 0.00 0.00 0.00 83 1008.8